Kezdőlap
METAR-TAF:

METAR-TAF

Repülőterek :

Independence Municipal Airport

Independence, Iowa, Amerikai Egyesült Államok

földrajzi szélesség: 42-27N, földrajzi hosszúság: 091-56W, magasság: 298 m

Jelenlegi meteorológiai megfigyelések

A jelentés 24 perccel ezelõtt készült, 07:55 UTC
Déli szél 5 kt
Hőmérséklet 22°C
Páratartalom 94%
Légköri nyomás 1013 hPa
Látótávolság: 11.3 km
Derült ég

METAR: KIIB 100755Z AUTO 18005KT 7SM CLR 22/21 A2990 RMK AO2 T02150207

Idő: 03:19 (08:19 UTC)


TAF: hiányzik

Meteorológiai megfigyelések és előrejelzések több, mint 4000 repülőtéren (METAR és TAF jelentéseket).

A térképen piros és sárga pontok jelzik az elérhető meteorológiai állomásokat.

Mozgassa az egeret a pont fölött, hogy megjelenjen az állomás neve.

Azután kattintson az időjárási megfigyelések és előrejelzések megtekintéséhez.

A térkép megváltoztatása: kattintson a fekete keresztel jelölt zöld gombra ráközelítéshez, a vonallal jelölt zöld gombra távolításhoz, vagy a zöld nyilakra a szomszédos térképek eléréséhez.


METAR-TAF: